TimeCDT,TemperatureF,Dew PointF,Humidity,Sea Level PressureIn,VisibilityMPH,Wind Direction,Wind SpeedMPH,Gust SpeedMPH,PrecipitationIn,Events,Conditions,WindDirDegrees,DateUTC
12:53 AM,82.9,72.0,69,29.91,10.0,SW,10.4,-,N/A,,Clear,230,2013-07-19 05:53:00
1:53 AM,82.0,72.0,71,29.89,10.0,SW,11.5,21.9,N/A,,Clear,230,2013-07-19 06:53:00
2:53 AM,82.0,71.1,69,29.88,10.0,WSW,12.7,-,N/A,,Clear,240,2013-07-19 07:53:00
3:53 AM,81.0,71.1,72,29.86,10.0,WSW,11.5,20.7,N/A,,Clear,240,2013-07-19 08:53:00
4:53 AM,80.1,70.0,71,29.85,10.0,WSW,11.5,-,N/A,,Clear,240,2013-07-19 09:53:00
5:53 AM,80.1,70.0,71,29.85,10.0,WSW,11.5,-,N/A,,Clear,240,2013-07-19 10:53:00
6:53 AM,81.0,70.0,69,29.84,10.0,WSW,13.8,-,N/A,,Clear,240,2013-07-19 11:53:00
7:53 AM,82.9,70.0,65,29.85,10.0,WSW,17.3,23.0,N/A,,Clear,250,2013-07-19 12:53:00
8:53 AM,86.0,71.1,61,29.85,9.0,WSW,16.1,25.3,N/A,,Partly Cloudy,240,2013-07-19 13:53:00
9:53 AM,87.1,71.1,59,29.84,9.0,WSW,21.9,31.1,N/A,,Clear,250,2013-07-19 14:53:00
10:53 AM,90.0,72.0,55,29.82,10.0,WSW,16.1,24.2,N/A,,Clear,240,2013-07-19 15:53:00
11:53 AM,91.9,69.1,47,29.79,10.0,WSW,18.4,28.8,N/A,,Clear,240,2013-07-19 16:53:00
12:53 PM,93.9,70.0,46,29.78,10.0,WSW,19.6,35.7,N/A,,Clear,240,2013-07-19 17:53:00
1:53 PM,93.9,70.0,46,29.77,10.0,West,19.6,28.8,N/A,,Clear,260,2013-07-19 18:53:00
2:53 PM,93.0,70.0,47,29.75,10.0,WSW,16.1,28.8,N/A,,Clear,250,2013-07-19 19:53:00
3:53 PM,91.0,71.1,52,29.75,10.0,West,12.7,26.5,N/A,,Clear,260,2013-07-19 20:53:00
4:53 PM,91.0,71.1,52,29.74,10.0,West,20.7,32.2,N/A,,Partly Cloudy,260,2013-07-19 21:53:00
5:53 PM,90.0,71.1,54,29.73,10.0,West,19.6,28.8,N/A,,Partly Cloudy,260,2013-07-19 22:53:00
6:53 PM,89.1,70.0,53,29.73,10.0,West,18.4,25.3,N/A,,Partly Cloudy,270,2013-07-19 23:53:00
7:53 PM,84.9,70.0,61,29.74,10.0,West,10.4,-,N/A,,Partly Cloudy,280,2013-07-20 00:53:00
8:53 PM,82.9,70.0,65,29.75,10.0,WSW,6.9,-,N/A,,Mostly Cloudy,250,2013-07-20 01:53:00
9:53 PM,81.0,69.1,67,29.79,10.0,SW,10.4,-,N/A,,Scattered Clouds,230,2013-07-20 02:53:00
10:53 PM,77.0,70.0,79,29.79,10.0,WSW,5.8,-,N/A,,Clear,240,2013-07-20 03:53:00
11:53 PM,75.9,69.1,79,29.80,10.0,West,5.8,-,N/A,,Clear,280,2013-07-20 04:53:00